Weather History for Sherbrooke, QC

Change the Weather History Date:

Thursday, November 1, 2012

  Actual Average Record
Temperature  
Mean Temperature 45 °F -  
Max Temperature 47 °F 44 °F 66 °F (2005)
Min Temperature 42 °F 29 °F 17 °F (2002)
Degree Days  
Heating Degree Days 20    
Moisture  
Dew Point 39 °F    
Average Humidity 79    
Maximum Humidity 94    
Minimum Humidity 53    
Precipitation  
Precipitation 0.00 in - - ()
Sea Level Pressure  
Sea Level Pressure 29.48 in    
Wind  
Wind Speed 3 mph ()    
Max Wind Speed 10 mph    
Max Gust Speed -    
Visibility 9.2 miles    
Events Rain    
Averages and records for this station are not official NWS values.
T = Trace of Precipitation, MM = Missing Value Source: Averaged Metar Reports

Daily Weather History Graph

Daily Weather History Graph

Search for Another Location

Airport:

Trip Planner

Search our weather history database for the weather conditions in past years. The results will help you decide how hot, cold, wet, or windy it might be!

Date:

Astronomy

Nov. 01, 2012 Rise Set
Actual Time 7:26 AM EDT 5:33 PM EDT
Civil Twilight 6:55 AM EDT 6:04 PM EDT
Nautical Twilight 6:20 AM EDT 6:39 PM EDT
Astronomical Twilight 5:46 AM EDT 7:13 PM EDT
Moon 7:21 PM EDT (11/1) 10:03 AM EDT (11/1)
Length of Visible Light 11h 08m
Length of Day
10h 06m
Waning Gibbous, 93% of the Moon is Illuminated
Nov 1
Waning Gibbous
Nov 6
Last Quarter
Nov 13
New
Nov 20
First Quarter
Nov 28
Full

Hourly Weather History & Observations

Time (EDT) Temp. Windchill Dew Point Humidity Pressure Visibility Wind Dir Wind Speed Gust Speed Precip Events Conditions
12:00 AM 46.4 °F 44.3 °F 42.8 °F 87% 29.49 in 9.0 mi SSW 4.6 mph - N/A   Overcast
1:00 AM 46.4 °F - 42.8 °F 87% 29.50 in 9.0 mi Calm Calm - N/A   Overcast
2:00 AM 46 °F - 42 °F 79% 29.49 in 10 mi South 2.3 mph - -   Overcast
2:00 AM 46.4 °F - 41.0 °F 81% 29.49 in 9.0 mi Calm Calm - N/A   Overcast
3:00 AM 44.6 °F - 42.8 °F 93% 29.48 in 9.0 mi Calm Calm - N/A   Overcast
4:00 AM 44.6 °F - 42.8 °F 93% 29.48 in 9.0 mi Calm Calm - N/A   Overcast
5:00 AM 44 °F - 43 °F 94% 29.47 in 10 mi East 3.5 mph - -   Overcast
5:00 AM 44.6 °F 43.1 °F 42.8 °F 93% 29.47 in 9.0 mi East 3.5 mph - N/A   Overcast
6:00 AM 44.6 °F - 42.8 °F 93% 29.48 in 9.0 mi SSE 2.3 mph - N/A   Overcast
7:00 AM 44.6 °F - 41.0 °F 87% 29.48 in 9.0 mi Variable 2.3 mph - N/A   Overcast
8:00 AM 45 °F - 41 °F 80% 29.49 in 10 mi SSW 3.5 mph - -   Overcast
8:00 AM 44.6 °F 43.1 °F 41.0 °F 87% 29.49 in 9.0 mi SSW 3.5 mph - N/A   Overcast
9:00 AM 44.6 °F 42.2 °F 41.0 °F 87% 29.49 in 9.0 mi South 4.6 mph - N/A   Overcast
10:00 AM 46.4 °F 44.3 °F 41.0 °F 81% 29.49 in 9.0 mi SSW 4.6 mph - N/A   Overcast
11:00 AM 45 °F - 39 °F 72% 29.49 in 10 mi SSW 5.8 mph - -   Overcast
11:00 AM 44.6 °F 42.2 °F 39.2 °F 81% 29.49 in 9.0 mi SSW 4.6 mph - N/A   Overcast
12:00 PM 44.6 °F 40.7 °F 37.4 °F 76% 29.49 in 9.0 mi SSW 6.9 mph - N/A   Overcast
1:00 PM 46.4 °F 41.9 °F 37.4 °F 71% 29.47 in 9.0 mi South 9.2 mph - N/A   Scattered Clouds
2:00 PM 47 °F - 35 °F 53% 29.47 in 10 mi SSW 9.2 mph - -   Overcast
2:00 PM 48.2 °F - 35.6 °F 62% 29.47 in 9.0 mi SSW 10.4 mph - N/A   Overcast
3:00 PM 46.4 °F 42.4 °F 35.6 °F 66% 29.46 in 9.0 mi SSW 8.1 mph - N/A   Overcast
4:00 PM 46.4 °F 44.3 °F 37.4 °F 71% 29.47 in 9.0 mi SW 4.6 mph - N/A   Overcast
5:00 PM 46 °F - 37 °F 62% 29.47 in 10 mi South 3.5 mph - -   Overcast
5:00 PM 46.4 °F 44.3 °F 37.4 °F 71% 29.47 in 9.0 mi South 4.6 mph - N/A   Overcast
6:00 PM 44.6 °F 43.1 °F 37.4 °F 76% 29.48 in 9.0 mi South 3.5 mph - N/A   Overcast
7:00 PM 44.6 °F 43.1 °F 37.4 °F 76% 29.49 in 9.0 mi South 3.5 mph - N/A   Overcast
8:00 PM 45 °F - 38 °F 69% 29.49 in 10 mi South 2.3 mph - -   Overcast
8:00 PM 44.6 °F - 37.4 °F 76% 29.49 in 9.0 mi South 2.3 mph - N/A   Overcast
9:00 PM 44.6 °F - 37.4 °F 76% 29.49 in 9.0 mi Variable 2.3 mph - N/A   Overcast
9:55 PM 44.6 °F - 37.4 °F 76% 29.49 in 9.0 mi Calm Calm - N/A   Overcast
9:56 PM 44.6 °F - 39.2 °F 81% 29.49 in 9.0 mi Calm Calm - N/A   Overcast
9:59 PM 44.6 °F - 39.2 °F 81% 29.49 in 9.0 mi Calm Calm - N/A   Overcast
10:00 PM 44.6 °F - 39.2 °F 81% 29.49 in 9.0 mi Calm Calm - N/A   Overcast
10:07 PM 44.6 °F - 39.2 °F 81% 29.49 in 9.0 mi Calm Calm - N/A Rain Light Rain
10:11 PM 44.6 °F - 39.2 °F 81% 29.49 in 9.0 mi SSW 2.3 mph - N/A Rain Light Rain
10:21 PM 44.6 °F - 39.2 °F 81% 29.49 in 9.0 mi SSW 2.3 mph - N/A   Overcast
11:00 PM 44 °F - 39 °F 76% 29.49 in 10 mi South 2.3 mph - -   Overcast
11:00 PM 44.6 °F - 39.2 °F 81% 29.49 in 9.0 mi South 2.3 mph - N/A   Overcast
11:55 PM 42.8 °F 41.1 °F 39.2 °F 87% 29.49 in 9.0 mi SSW 3.5 mph - N/A Rain Light Rain